GFSCGP_500_spd_135.txt.gz
Wind_Speed
38 46 47 39 40 42 42 42 42 40 41 45 44 43 39 34 36 38 47 44 24 32 32 32 32 30 31 31 31 32 34 36 37 38 40 43 45 48 50 52 53 55 56 57
48 49 38 38 39 40 40 40 41 40 39 40 43 45 45 36 29 38 47 44 37 32 32 30 31 33 33 34 34 35 35 38 39 41 43 46 48 51 54 57 60 63 63 61
42 35 34 37 35 37 40 39 37 40 38 43 46 46 47 42 40 39 44 40 37 33 33 33 33 34 33 35 36 37 39 41 45 47 50 52 54 56 61 65 67 63 62 55
43 36 36 35 35 35 40 37 34 39 42 47 48 50 47 45 41 46 45 41 38 34 34 34 34 33 35 36 38 40 44 47 49 52 53 54 58 62 66 68 65 58 53 52
41 36 38 40 35 35 38 42 39 44 47 46 47 50 45 41 43 45 46 45 41 35 33 36 36 35 37 39 41 42 45 48 51 53 55 58 63 67 70 67 62 59 56 54
51 46 43 40 40 42 39 43 45 49 49 48 48 45 41 45 42 49 48 48 42 34 34 36 36 37 39 40 42 44 47 50 51 54 57 61 64 64 61 59 56 55 50 47
51 50 44 44 44 42 44 46 48 51 51 49 46 47 46 46 46 49 48 44 36 40 43 43 41 41 41 42 45 47 48 50 52 55 58 61 61 58 56 54 52 47 46 46
49 51 43 42 44 46 45 48 52 50 50 50 49 54 51 49 51 50 45 41 42 45 48 45 43 41 42 45 47 47 46 49 52 56 58 57 58 54 55 51 48 47 48 49
46 49 42 41 46 47 48 51 48 49 50 55 55 53 52 52 52 53 51 48 47 50 49 48 45 43 45 47 47 45 46 49 52 55 55 54 54 53 54 51 51 51 52 49
51 52 47 43 46 49 54 52 51 54 57 58 55 53 55 53 52 52 50 48 50 51 51 48 47 47 47 49 47 47 48 49 52 53 54 54 54 54 53 50 50 50 48 46
53 42 51 46 50 48 52 56 59 59 58 59 57 57 54 52 52 51 51 55 54 52 52 50 48 49 50 48 48 48 49 49 51 53 54 55 54 55 52 47 45 46 45 42
49 44 49 46 45 46 53 52 55 59 57 60 59 58 56 55 50 50 51 54 52 50 50 50 49 47 49 45 47 49 49 52 54 55 55 53 54 51 44 47 47 46 45 45
53 50 49 46 52 49 52 52 55 54 57 57 59 54 54 50 51 56 52 47 42 42 42 43 45 47 50 43 45 49 52 55 59 55 55 53 54 51 49 48 49 48 47 47
47 49 53 48 48 50 56 56 57 55 57 59 60 56 52 47 52 52 45 35 33 38 41 46 42 40 37 45 49 51 55 57 58 51 49 48 46 45 46 47 49 49 47 43
52 50 51 51 53 59 56 51 53 57 56 59 51 53 45 48 47 45 41 48 45 37 35 42 42 45 48 50 54 57 60 62 54 47 45 45 43 42 44 45 44 44 42 40
44 49 47 54 54 62 63 60 52 47 43 49 46 56 47 46 44 45 51 49 51 50 50 53 53 51 50 52 57 56 56 52 46 42 41 39 39 41 43 42 40 39 38 32
43 42 39 43 54 61 63 62 61 62 65 62 55 55 52 47 50 43 56 57 56 51 54 57 55 52 54 61 59 51 47 46 42 43 38 41 39 43 39 36 34 33 29 19
52 47 48 48 44 51 58 61 64 66 67 63 58 59 53 56 51 50 52 58 56 53 54 56 55 49 48 48 40 36 38 41 42 37 38 38 42 38 31 27 25 23 18 12
40 40 42 47 49 54 59 52 55 55 62 65 62 52 52 52 53 54 54 53 53 52 47 46 43 46 48 43 38 41 45 42 37 32 33 41 36 29 24 22 20 17 13 13
40 46 48 46 45 42 29 35 34 37 40 36 40 45 44 41 47 44 43 47 48 49 49 50 52 51 44 38 38 42 41 37 35 35 40 38 26 25 23 21 20 13 13 11
27 30 35 36 37 38 33 32 34 40 39 38 38 40 41 43 43 45 44 45 46 44 46 46 45 42 38 37 41 40 35 31 31 36 37 25 24 22 20 18 14 12 8 3
23 23 20 24 28 29 33 44 46 44 44 43 43 42 44 47 46 44 43 42 42 42 42 41 39 36 35 39 40 36 30 31 36 40 25 23 20 19 17 14 12 8 4 3
21 20 24 29 29 27 28 34 33 38 41 36 33 33 37 40 43 43 43 40 38 37 37 35 34 33 35 37 34 30 32 35 33 22 22 20 18 16 14 13 11 7 5 6
19 25 26 32 30 35 35 35 32 31 29 30 27 31 34 32 28 31 31 31 32 32 32 33 33 35 37 32 30 30 32 26 22 22 20 18 17 16 13 12 10 9 9 10
26 27 29 32 31 33 32 35 36 36 38 35 37 37 37 38 38 36 34 34 33 33 34 33 34 37 36 32 30 25 23 23 22 20 17 17 17 16 16 15 14 13 13 13
39 42 37 37 36 25 27 26 26 27 29 29 28 32 32 32 32 33 36 38 39 41 39 38 39 38 33 28 25 24 23 22 21 18 18 18 17 17 18 18 18 18 18 18

GFSCGP_500_spd_138.txt.gz
Wind_Speed
40 45 42 31 35 40 39 40 42 41 46 46 48 48 50 46 43 39 39 38 37 28 27 30 31 32 33 29 29 29 30 31 33 33 32 33 35 37 38 41 43 45 48 51
45 47 36 40 44 48 47 48 45 44 45 49 48 47 48 45 41 33 35 39 37 26 28 27 29 32 32 31 31 31 31 32 34 35 35 36 38 40 43 45 48 51 55 59
44 43 44 49 47 46 44 43 39 39 38 46 47 46 44 43 44 34 37 39 38 33 29 26 29 34 32 32 33 32 33 34 35 37 38 39 41 44 47 50 52 56 59 63
48 43 44 44 46 41 38 37 39 39 40 43 44 48 45 44 44 41 36 36 37 35 35 31 35 36 34 33 34 35 35 37 38 39 40 42 45 48 50 53 56 58 61 68
51 46 42 46 39 40 39 37 42 40 39 40 45 49 46 45 46 42 41 42 41 36 34 36 37 35 36 36 35 36 37 38 40 41 44 46 49 51 52 54 56 60 65 65
54 49 48 44 41 43 42 44 45 46 44 47 46 45 42 48 40 41 46 46 42 41 38 37 38 37 37 37 38 39 39 40 42 44 47 49 52 52 52 53 56 59 62 61
56 52 46 50 52 48 46 45 48 50 53 51 46 47 42 45 45 43 45 45 43 42 39 39 39 39 38 38 39 40 41 42 43 45 49 50 51 51 52 54 55 57 57 58
57 60 54 51 52 49 48 48 51 53 51 48 47 53 47 45 45 46 46 45 44 42 40 43 43 43 42 41 43 44 44 45 45 47 50 50 50 51 53 55 55 57 55 57
42 54 50 49 43 40 43 50 49 50 51 53 55 54 48 46 47 48 46 45 43 41 42 45 45 46 46 47 46 47 48 48 47 49 50 49 50 52 54 56 59 58 55 58
63 54 51 46 44 44 47 45 47 53 55 56 53 54 49 47 47 48 48 49 46 45 47 49 50 50 53 52 50 49 49 48 47 49 49 47 49 54 56 60 62 59 55 56
65 58 54 53 53 49 43 46 47 50 53 57 56 56 49 50 51 52 52 52 49 48 51 51 54 51 52 51 50 50 49 47 48 49 47 49 54 58 61 65 62 59 54 55
53 44 62 58 52 52 54 51 49 52 51 50 49 45 48 51 51 52 51 51 51 53 52 51 52 53 50 48 48 47 47 48 50 44 48 52 57 60 63 67 61 58 50 51
48 51 50 60 52 59 53 52 53 54 53 55 55 47 50 49 50 52 53 51 51 50 49 47 45 50 44 43 43 48 47 48 45 46 51 56 57 61 63 59 55 51 48 47
49 50 56 41 44 43 49 48 52 57 59 53 55 50 51 52 54 56 54 51 48 47 44 43 38 42 42 44 48 45 43 44 49 50 54 54 57 56 56 51 48 46 43 44
50 43 45 48 56 48 45 47 59 58 59 61 51 52 53 55 51 52 54 44 40 42 38 31 36 40 44 40 44 43 50 50 53 53 58 54 52 51 50 45 42 40 42 42
46 53 46 53 57 57 59 52 56 58 60 59 58 55 51 57 61 59 48 46 39 40 46 53 52 47 48 46 41 43 49 53 54 52 47 47 45 47 48 41 39 41 38 37
47 60 48 41 43 40 45 54 55 58 61 61 61 56 54 58 59 58 58 50 35 44 45 50 51 50 57 48 44 47 49 42 40 42 41 43 48 44 35 37 41 34 30 32
56 45 51 54 46 45 29 42 50 57 65 62 61 58 61 59 57 53 54 54 52 50 57 50 43 44 41 43 42 42 40 42 42 41 42 46 45 33 36 40 34 26 26 24
38 38 45 51 52 54 47 36 36 43 51 58 56 54 55 52 54 58 59 62 61 57 56 53 50 38 36 38 40 42 46 45 41 40 42 46 37 30 36 35 27 25 23 21
34 37 40 42 44 42 42 37 39 34 35 40 48 53 57 57 59 55 53 49 43 42 37 36 38 41 41 42 43 47 50 48 39 41 43 39 30 31 36 27 22 22 19 16
30 34 36 40 39 42 40 30 35 34 32 32 32 33 37 38 41 41 39 37 39 41 44 45 45 45 46 43 43 46 45 38 38 42 37 31 30 36 25 22 19 17 15 13
29 32 30 23 25 25 28 26 26 28 31 32 39 39 43 41 41 42 43 44 45 46 48 46 44 44 43 43 42 40 36 37 40 38 30 30 36 23 22 18 17 14 13 7
23 20 19 22 21 27 27 25 27 25 25 31 41 43 45 47 46 45 49 49 42 40 42 43 43 42 40 39 37 34 34 34 35 31 31 40 24 22 19 15 16 13 13 12
23 21 21 21 19 21 25 32 37 36 30 27 29 28 29 30 29 31 32 29 30 32 32 33 35 32 34 34 34 34 32 33 31 32 33 23 22 21 17 16 15 14 16 14
25 24 24 29 25 25 30 27 33 36 36 33 32 35 36 39 41 42 40 38 37 36 36 36 35 32 34 34 34 32 32 31 33 29 23 23 22 19 18 18 17 18 18 18
27 27 30 31 32 37 38 37 47 43 30 30 34 33 30 34 36 37 37 35 34 34 36 39 40 38 39 35 33 32 31 32 29 24 24 24 22 20 20 20 21 20 21 22

GFSCGP_500_spd_144.txt.gz
Wind_Speed
39 42 41 37 39 40 41 41 42 40 40 40 41 43 45 46 48 48 49 50 50 48 48 44 39 39 40 46 44 42 41 37 35 35 36 36 37 37 38 39 39 39 39 40
40 39 33 37 35 35 37 38 38 36 35 39 41 44 47 50 51 51 50 53 52 52 51 45 36 33 38 44 40 38 39 36 35 36 38 38 39 40 41 42 42 41 42 42
43 40 38 39 37 38 39 40 38 38 38 41 46 43 47 50 54 55 54 54 54 50 46 37 32 34 37 41 42 40 38 37 37 39 39 40 42 43 43 44 43 44 44 45
48 46 43 40 41 42 44 42 44 45 46 47 45 48 47 49 51 53 54 49 40 40 41 33 30 35 37 41 43 41 39 37 38 39 41 41 43 44 45 45 45 46 47 48
50 50 49 47 44 49 48 48 49 51 52 51 51 55 46 48 45 46 46 42 38 37 37 34 35 38 36 38 41 41 41 40 40 41 43 44 45 45 46 47 48 48 49 50
50 52 56 53 50 47 50 55 56 54 56 59 53 56 45 52 50 44 45 43 39 38 39 40 42 41 36 37 42 43 41 41 42 43 45 46 49 49 47 46 47 49 52 54
57 52 54 54 52 46 48 53 59 62 65 64 60 61 52 54 51 52 45 44 42 43 43 44 45 43 41 41 42 42 42 44 44 45 47 49 50 49 49 50 51 53 54 55
56 60 57 57 54 51 50 50 55 62 65 64 64 65 59 54 54 56 53 48 48 47 45 42 43 44 44 45 43 42 45 46 44 48 49 48 49 50 52 52 52 53 53 54
51 57 54 53 57 57 54 55 48 52 52 58 64 61 55 55 56 58 58 54 52 51 51 48 47 46 44 44 45 44 43 43 45 48 50 49 50 52 54 54 54 51 48 45
48 56 53 53 54 54 56 56 56 58 60 63 60 57 56 56 59 62 62 61 57 52 49 49 47 45 44 43 43 43 42 44 47 50 52 51 53 54 55 53 49 48 44 46
48 53 54 54 51 52 54 55 54 59 60 64 64 63 51 56 60 63 58 55 53 51 49 48 48 46 45 46 47 46 45 46 49 53 52 53 54 51 49 47 46 42 44 49
49 54 54 56 51 52 51 53 54 59 64 66 65 63 48 56 57 60 57 54 50 49 49 46 45 45 44 44 45 46 48 49 53 52 52 51 50 48 47 45 44 42 48 51
50 54 57 58 57 55 50 49 50 53 55 61 65 65 53 59 58 55 52 52 48 47 46 44 43 41 41 44 48 50 50 52 51 51 49 50 44 44 46 47 45 47 51 48
49 52 51 52 53 58 54 56 47 42 56 61 68 64 56 59 60 57 54 55 52 52 51 52 49 45 44 51 51 50 49 50 48 46 43 46 45 49 51 44 45 46 44 46
48 45 48 50 48 49 54 48 53 55 54 50 56 63 47 61 62 64 64 61 56 52 49 50 46 46 47 45 46 49 49 44 43 47 48 46 51 51 47 43 40 41 43 47
45 49 49 58 44 46 52 51 45 32 43 47 52 55 56 52 51 56 60 54 51 53 49 50 48 49 48 52 49 51 41 34 40 34 38 45 46 46 42 37 39 41 41 43
46 45 49 49 49 54 56 51 55 48 48 53 38 42 39 53 53 50 45 51 51 51 56 48 52 54 55 53 55 45 43 42 43 38 40 33 35 38 39 40 41 42 42 40
47 42 45 48 45 45 44 47 47 45 48 45 49 51 32 34 42 50 43 42 45 52 56 56 57 60 59 51 49 44 45 52 44 35 41 43 45 41 42 43 44 39 38 39
49 49 47 47 42 44 33 33 36 31 28 37 42 37 41 41 33 38 43 46 47 55 55 57 52 49 50 47 45 49 52 40 32 41 43 42 40 41 42 42 34 36 37 37
46 51 50 50 48 44 32 26 26 28 26 27 29 28 31 32 37 35 34 29 40 40 46 51 43 34 25 26 31 29 31 37 39 41 42 45 47 50 42 34 32 34 36 34
26 40 45 44 45 38 25 27 22 20 21 20 20 18 18 18 19 19 28 30 30 30 29 28 24 25 27 26 28 31 33 36 39 41 45 48 47 40 35 33 32 31 32 31
33 38 37 43 42 37 21 20 19 17 13 14 16 19 22 22 23 24 25 28 27 26 27 28 25 26 28 30 32 36 39 40 43 44 44 43 38 33 32 31 30 29 29 30
25 30 33 33 31 25 22 20 20 13 9 11 14 17 20 22 23 23 25 29 31 29 29 30 31 32 33 35 37 38 39 40 38 35 33 32 31 30 30 29 29 28 29 28
32 31 35 30 28 25 23 25 24 17 14 16 17 18 18 20 24 26 27 27 26 25 26 28 30 31 29 30 30 25 23 30 27 27 28 28 30 30 29 28 26 27 27 26
34 28 25 26 26 26 27 27 23 26 29 30 32 31 29 30 28 31 28 29 28 29 28 28 28 28 28 29 30 31 32 33 34 32 31 30 29 31 30 26 25 27 27 26
31 33 32 27 24 29 30 30 30 31 36 39 37 36 37 37 37 34 33 26 28 28 30 27 28 29 29 30 31 31 30 32 32 33 33 31 32 30 31 27 26 27 27 27

GFSCGP_500_spd_147.txt.gz
Wind_Speed
44 45 43 39 42 43 41 40 43 43 43 43 42 39 41 42 45 47 45 44 43 41 43 43 42 41 40 45 49 53 47 39 40 36 36 35 35 35 35 35 36 37 39 40
40 41 37 41 41 41 41 39 35 37 37 41 38 38 40 42 42 42 45 46 44 44 44 45 44 43 46 46 50 45 44 40 39 36 38 38 38 37 37 38 39 41 42 43
41 42 40 41 41 39 38 38 33 36 36 39 41 40 38 40 42 42 41 40 42 43 46 47 49 52 47 41 43 41 44 42 42 40 39 39 38 38 39 41 42 44 45 46
44 41 41 44 45 43 44 41 40 42 43 42 39 44 37 38 41 43 41 40 41 42 42 45 47 45 41 41 39 41 43 46 46 42 40 39 38 40 42 42 43 44 45 45
44 45 44 46 45 46 47 50 46 46 49 49 46 48 37 40 41 42 41 44 46 44 40 38 39 38 38 38 40 44 46 49 47 45 42 41 40 42 43 44 44 44 46 48
49 49 49 46 48 47 51 53 52 53 54 57 56 54 42 43 47 45 45 43 43 43 41 40 39 41 40 40 44 46 47 50 47 47 44 42 43 45 45 46 46 47 49 50
55 52 52 55 55 54 51 49 54 57 56 59 55 58 51 53 54 53 51 52 47 44 40 39 42 43 45 46 47 47 50 50 51 50 47 46 46 48 47 48 49 49 51 53
50 50 50 51 53 58 59 57 58 58 57 59 55 58 56 54 55 59 59 56 53 48 44 43 42 44 45 48 49 48 48 48 48 49 48 48 50 49 50 50 50 51 53 53
48 49 50 49 50 50 48 49 48 50 51 50 58 56 56 53 54 54 56 55 55 54 50 48 47 48 49 50 50 51 53 52 50 50 51 51 50 51 53 53 53 52 52 49
44 44 43 43 42 43 45 46 47 50 51 54 57 58 55 51 52 53 53 57 57 54 53 47 50 53 55 54 53 52 52 51 51 51 50 51 53 54 53 51 50 50 49 45
41 42 44 43 42 44 46 48 50 53 51 54 57 61 55 56 56 57 55 57 56 56 55 53 49 50 55 57 56 54 53 51 50 50 52 54 53 53 50 49 49 47 46 43
46 47 47 47 45 47 48 51 53 54 54 55 58 56 45 54 56 57 54 51 53 53 51 51 47 49 51 53 55 55 54 54 55 54 52 52 55 51 49 48 46 44 41 41
48 49 50 48 47 48 50 52 53 53 43 46 51 53 48 56 59 62 63 59 54 50 51 48 47 46 46 47 47 51 54 53 51 51 56 58 52 50 47 41 40 42 43 45
49 51 50 51 51 54 53 53 51 51 51 55 53 54 47 46 60 63 66 65 62 57 55 52 48 46 47 44 42 44 45 44 48 52 57 48 53 46 42 43 39 40 42 44
48 50 50 50 51 53 54 53 49 52 55 51 54 54 53 49 46 58 64 62 58 58 59 57 57 55 52 41 43 41 38 45 54 57 45 49 47 48 33 27 30 34 39 44
48 48 48 48 47 48 50 47 44 50 48 47 46 50 48 40 43 55 54 59 55 51 55 51 52 55 51 48 37 40 46 41 44 50 51 51 43 32 27 29 32 36 42 43
48 50 49 49 46 47 51 43 46 44 40 42 45 45 45 46 39 43 43 51 56 51 50 49 46 42 44 38 34 43 44 47 57 54 56 50 48 41 32 29 34 41 42 42
47 48 48 47 45 49 41 39 41 40 33 33 35 34 33 37 35 39 45 39 37 38 36 33 33 34 38 47 45 46 45 45 45 50 51 40 32 35 37 35 37 40 43 42
42 43 45 47 46 43 38 35 36 34 28 33 29 24 24 24 27 32 29 41 37 37 40 42 39 42 40 53 41 44 44 34 34 30 34 34 38 35 39 36 34 38 42 43
40 41 44 43 41 44 29 33 32 35 28 27 25 23 23 23 18 19 17 17 30 40 30 36 25 43 49 57 46 44 47 32 24 35 36 35 33 34 41 43 46 42 34 30
37 36 34 36 37 42 36 33 35 36 23 25 20 13 9 15 20 19 17 17 16 19 29 32 23 18 24 30 28 24 20 21 29 38 37 40 35 40 41 44 40 37 32 30
35 35 32 23 25 38 25 30 33 21 24 23 18 12 10 12 16 16 14 15 22 22 19 22 22 19 23 23 28 33 35 34 26 34 37 37 39 38 36 34 32 29 29 29
38 38 40 37 25 28 24 20 18 22 22 20 16 13 12 9 11 12 13 14 18 19 22 27 25 25 28 28 29 31 31 32 35 31 39 40 37 32 29 26 27 29 29 29
36 33 36 33 20 25 29 24 20 25 23 20 19 18 19 18 22 23 22 21 24 25 27 26 23 24 27 27 29 29 29 23 32 33 34 28 26 28 29 29 29 29 30 30
23 23 25 25 18 24 23 20 24 25 27 27 26 27 27 25 26 28 29 30 28 25 29 29 28 26 25 25 24 23 24 26 27 25 31 35 35 33 32 32 31 33 32 30
13 21 26 21 19 22 20 23 23 24 27 29 30 35 34 35 34 33 34 36 33 35 38 33 31 29 29 28 28 30 30 31 31 32 33 35 36 34 34 33 32 33 32 31